Location: Cambridge
(43.3830°N, 80.3170°W)
Time: 04:04:02
(UTC-04:00)

Envisat - Visible Passes

Search period start: 23 October 2019 00:00
Search period end: 02 November 2019 00:00
Orbit: 764 x 766 km, 98.1° (Epoch: 23 October)

Date Brightness Start Highest point End Pass type
(mag) Time Alt. Az. Time Alt. Az. Time Alt. Az.
23 Oct 6.1 07:06:27 10° NE 07:09:43 17° E 07:12:57 10° SE visible
23 Oct 4.3 20:00:00 10° SSW 20:04:46 41° W 20:09:35 10° NNW visible
24 Oct 3.0 19:22:50 10° SSE 19:27:56 89° WNW 19:33:02 10° NNW visible
24 Oct 6.3 21:06:33 10° W 21:07:39 11° W 21:08:43 10° WNW visible
25 Oct 3.4 18:46:31 10° SE 18:51:16 42° ENE 18:56:03 10° N visible
25 Oct 5.3 20:26:23 10° SSW 20:30:27 24° W 20:34:32 10° NW visible
26 Oct 6.3 06:55:55 10° ENE 06:58:19 13° E 07:00:42 10° ESE visible
26 Oct 3.9 19:48:31 10° S 19:53:28 52° W 19:58:25 10° NNW visible
27 Oct 2.9 19:11:37 10° SSE 19:16:40 73° ENE 19:21:45 10° N visible
27 Oct 6.0 20:53:40 10° WSW 20:56:13 14° W 20:58:48 10° WNW visible
28 Oct 5.9 07:20:05 10° NE 07:24:06 23° E 07:28:06 10° SE visible
28 Oct 4.9 20:14:40 10° SSW 20:19:05 30° W 20:23:33 10° NW visible
29 Oct 6.7 06:46:32 10° E 06:46:54 10° E 06:47:15 10° E visible
29 Oct 3.4 19:37:08 10° S 19:42:10 66° WSW 19:47:14 10° NNW visible
30 Oct 3.0 19:00:28 10° SSE 19:05:26 58° ENE 19:10:26 10° N visible
30 Oct 5.7 20:41:29 10° SW 20:44:50 18° W 20:48:12 10° NW visible
31 Oct 6.0 07:09:13 10° NE 07:12:44 18° E 07:16:13 10° SE visible
31 Oct 4.5 20:03:03 10° SSW 20:07:45 38° W 20:12:29 10° NNW visible
01 Nov 3.1 19:25:49 10° SSE 19:30:53 83° WSW 19:35:59 10° NNW visible
